[[{"header":{"parameterUnit":"m.s-1","parameterCategory":1,"la1":30.2992,"la2":30.254,"lo1":-89.0895,"lo2":-89.0443,"dy":0.0025,"dx":0.0025,"nx":19,"ny":19,"refTime":"2026-05-12T03:00:00:Z","depth":0,"parameterNumber":2,"parameterNumberName":"U-component_of_WINDS"},"data":[0,0,0,-5.1437,-5.1437,-5.1423,-5.1422,-5.1429,-5.1429,0,0,0,0,0,0,0,0,0,0,0,-5.1455,-5.1456,-5.1437,-5.1437,-5.1423,-5.1422,-5.1429,-5.1429,0,0,0,0,0,0,0,0,0,0,0,-5.1455,-5.1456,-5.1456,-5.1437,-5.1423,-5.1422,-5.1429,-5.1431,0,0,0,0,0,0,0,0,0,0,-5.1441,-5.1471,-5.1455,-5.1456,-5.1437,-5.1423,-5.1422,-5.1431,-5.1431,-5.1446,0,-5.1462,0,-5.1446,-5.1431,-5.1431,0,0,0,-5.1427,-5.1471,-5.1455,-5.1456,-5.1437,-5.1423,-5.1426,-5.1431,-5.1431,-5.1446,-5.1462,-5.1461,-5.1446,-5.1431,-5.1432,-5.155,-5.1551,0,0,-5.1427,-5.146,-5.1455,-5.1455,-5.1458,-5.1427,-5.1426,-5.143,-5.145,-5.1462,-5.1461,-5.1446,-5.1432,-5.1432,-5.1549,-5.155,0,0,0,-5.1437,-5.1462,-5.1444,-5.1456,-5.1451,-5.1427,-5.1426,-5.145,-5.1441,-5.1461,-5.1446,-5.1432,-5.1432,-5.1548,-5.1549,-5.1632,0,0,0,-5.1437,-5.1467,-5.1445,-5.1465,-5.1452,-5.145,-5.1445,-5.1441,-5.144,-5.1446,-5.1432,-5.1432,-5.1546,-5.1549,-5.1627,-5.1665,0,0,0,-5.1451,-5.1468,-5.1471,-5.1467,-5.1462,-5.1449,-5.1441,-5.144,-5.1432,-5.1431,-5.1433,-5.1546,-5.1548,-5.1623,-5.1658,-5.1706,0,0,0,-5.1477,-5.1545,-5.1473,-5.1543,-5.1462,-5.15,-5.144,-5.1467,-5.1477,-5.1432,-5.1547,-5.1549,-5.1621,-5.1654,-5.1701,-5.1751,-5.1775,0,0,-5.1581,-5.1559,-5.1598,-5.1533,-5.1592,-5.15,-5.1571,-5.1549,-5.152,-5.1542,-5.1544,-5.1629,-5.1658,-5.1705,-5.1899,-5.1918,0,0,0,-5.1642,-5.167,-5.1679,-5.1689,-5.1673,-5.1663,-5.1626,-5.1618,-5.1635,-5.1538,-5.1658,-5.1674,-5.17,-5.1723,-5.1739,-5.1759,-5.1561,-5.1561,-5.1561,-5.1836,-5.1794,-5.1856,-5.1812,-5.1823,-5.1785,-5.179,-5.1773,-5.1727,-5.1757,-5.1763,-5.1886,-5.1913,-5.1925,-5.1947,-5.1786,-5.1787,-5.1787,-5.1787,-5.1985,-5.2018,-5.1956,-5.1994,-5.195,-5.1981,-5.1947,-5.1914,-5.1938,-5.1878,-5.1899,-5.1836,-5.1948,-5.1964,-5.1793,-5.1792,-5.1791,-5.1791,-5.179,-5.2107,-5.2115,-5.2104,-5.2115,-5.2128,-5.2082,-5.2107,-5.2066,-5.2028,-5.2049,-5.2051,-5.2049,-5.2042,-5.2053,-5.2053,-5.2054,-5.2054,-5.2054,-5.2055,-5.2237,-5.2222,-5.2247,-5.2237,-5.2239,-5.2235,-5.2199,-5.2199,-5.2189,-5.2158,-5.2157,-5.211,-5.1966,-5.1931,-5.2061,-5.206,-5.2059,-5.2059,-5.2058,-5.2402,-5.2358,-5.2398,-5.2399,-5.2384,-5.24,-5.2348,-5.2353,-5.2348,-5.2362,-5.231,-5.2211,-5.2185,-5.2171,-5.2142,-5.2318,-5.2318,-5.2319,-5.2319,-5.2504,-5.2487,-5.2518,-5.2523,-5.2524,-5.2481,-5.2528,-5.2501,-5.2466,-5.2461,-5.2429,-5.2387,-5.2375,-5.2356,-5.2339,-5.231,-5.2526,-5.2526,-5.2527,-5.2602,-5.2584,-5.2631,-5.2596,-5.2581,-5.257,-5.2613,-5.2623,-5.2574,-5.2534,-5.2455,-5.2447,-5.2377,-5.2357,-5.2314,-5.2288,-5.2235,0,0]},{"header":{"parameterUnit":"m.s-1","parameterCategory":1,"la1":30.2992,"la2":30.254,"lo1":-89.0895,"lo2":-89.0443,"dy":0.0025,"dx":0.0025,"nx":19,"ny":19,"refTime":"2026-05-12T03:00:00:Z","depth":0,"parameterNumber":3,"parameterNumberName":"V-component_of_WINDS"},"data":[0,0,0,-1.1543,-1.1547,-1.1726,-1.1727,-1.1966,-1.1968,0,0,0,0,0,0,0,0,0,0,0,-1.1494,-1.1495,-1.1543,-1.1547,-1.1726,-1.1727,-1.1965,-1.1968,0,0,0,0,0,0,0,0,0,0,0,-1.1493,-1.1495,-1.1497,-1.1548,-1.1726,-1.1727,-1.1965,-1.1827,0,0,0,0,0,0,0,0,0,0,-1.1651,-1.1609,-1.1494,-1.1497,-1.1549,-1.1726,-1.1727,-1.182,-1.1835,-1.1888,0,-1.1934,0,-1.1954,-1.1984,-1.1985,0,0,0,-1.1545,-1.1596,-1.1641,-1.1497,-1.1551,-1.1725,-1.1645,-1.1828,-1.1846,-1.1908,-1.1937,-1.1946,-1.1958,-1.1986,-1.1987,-1.2291,-1.2292,0,0,-1.1535,-1.1529,-1.1629,-1.1652,-1.1622,-1.1639,-1.165,-1.1839,-1.1871,-1.1938,-1.1951,-1.1962,-1.1987,-1.1989,-1.2289,-1.2291,0,0,0,-1.1508,-1.1522,-1.1562,-1.1642,-1.1674,-1.1644,-1.1657,-1.1862,-1.1875,-1.1954,-1.1965,-1.1989,-1.1992,-1.2287,-1.229,-1.2358,0,0,0,-1.1502,-1.1506,-1.1557,-1.1555,-1.167,-1.177,-1.1677,-1.1862,-1.1884,-1.1964,-1.1989,-1.1994,-1.2286,-1.2289,-1.2353,-1.2393,0,0,0,-1.1481,-1.1504,-1.153,-1.1554,-1.1631,-1.1767,-1.1791,-1.1867,-1.1891,-1.1985,-1.1995,-1.2285,-1.2288,-1.2348,-1.2385,-1.2472,0,0,0,-1.1457,-1.159,-1.1531,-1.1684,-1.1629,-1.1806,-1.179,-1.1922,-1.2011,-1.199,-1.2286,-1.229,-1.2346,-1.238,-1.2467,-1.2546,-1.2577,0,0,-1.1621,-1.161,-1.17,-1.1652,-1.1838,-1.1779,-1.1976,-1.2065,-1.2081,-1.222,-1.2228,-1.2354,-1.2385,-1.2471,-1.275,-1.2775,0,0,0,-1.175,-1.1815,-1.1865,-1.1948,-1.2016,-1.2079,-1.2138,-1.2171,-1.2289,-1.215,-1.2408,-1.2426,-1.2477,-1.2516,-1.2537,-1.2582,-1.2306,-1.2306,-1.2305,-1.1976,-1.1986,-1.2137,-1.2169,-1.2249,-1.2306,-1.2373,-1.2428,-1.2417,-1.2477,-1.2521,-1.2688,-1.2733,-1.2749,-1.2796,-1.256,-1.2561,-1.2561,-1.2561,-1.222,-1.2315,-1.2293,-1.2432,-1.2443,-1.2561,-1.2621,-1.2609,-1.2721,-1.2657,-1.2703,-1.2635,-1.2776,-1.2817,-1.2566,-1.2565,-1.2565,-1.2564,-1.2564,-1.2372,-1.242,-1.2454,-1.2573,-1.2664,-1.2691,-1.28,-1.2805,-1.2812,-1.2857,-1.2904,-1.2903,-1.2905,-1.2878,-1.2879,-1.2879,-1.288,-1.288,-1.288,-1.2518,-1.2554,-1.2643,-1.2725,-1.2778,-1.2849,-1.2906,-1.2959,-1.302,-1.3016,-1.3017,-1.3002,-1.2785,-1.2733,-1.289,-1.2888,-1.2887,-1.2886,-1.2885,-1.2767,-1.2711,-1.2849,-1.2901,-1.2998,-1.3088,-1.3092,-1.32,-1.3244,-1.3298,-1.3271,-1.3109,-1.3099,-1.3082,-1.3039,-1.3266,-1.3266,-1.3266,-1.3266,-1.2898,-1.2891,-1.3033,-1.3117,-1.32,-1.3217,-1.3374,-1.3419,-1.3458,-1.3487,-1.3454,-1.3395,-1.3378,-1.3378,-1.3355,-1.3315,-1.3607,-1.3608,-1.3608,-1.3053,-1.3054,-1.3187,-1.322,-1.3295,-1.336,-1.3509,-1.3608,-1.364,-1.3622,-1.351,-1.3496,-1.3402,-1.337,-1.3354,-1.3318,-1.3245,0,0]}]]